This is the latest recevied weather packets stored in our database for station/object KA7RLM. If no packets are shown the sender has not sent any weather packets the latest 10 day(s).
| Time | Temp. | Humidity | Pressure | Rain* | Wind** | Luminosity | Snow |
|---|---|---|---|---|---|---|---|
| 1777742424 | 14.44° C | 80% | 1017.2 hPa | 0 mm | - | - | - |
| 1777741226 | 13.33° C | 84% | 1017.2 hPa | 0 mm | - | - | - |
| 1777740026 | 13.89° C | 83% | 1017.2 hPa | 0 mm | - | - | - |
| 1777737031 | 12.22° C | 88% | 1017.4 hPa | 0 mm | - | - | - |
| 1777734019 | 11.11° C | 92% | 1017.2 hPa | 0 mm | - | - | - |
| 1777729818 | 10.56° C | 95% | 1016.9 hPa | 0 mm | - | - | - |
| 1777728631 | 10.56° C | 96% | 1016.9 hPa | 0 mm | - | - | - |
| 1777723828 | 10.56° C | 93% | 1017.3 hPa | 0 mm | - | - | - |
| 1777722019 | 11.11° C | 92% | 1017.4 hPa | 0 mm | - | - | - |
| 1777721422 | 11.11° C | 92% | 1017.6 hPa | 0 mm | - | - | - |
| 1777717818 | 11.11° C | 90% | 1018 hPa | 0 mm | - | - | - |
| 1777715430 | 11.11° C | 89% | 1017 hPa | 0 mm | - | - | - |
| 1777713621 | 11.67° C | 88% | 1017.1 hPa | 0 mm | - | - | - |
| 1777712428 | 11.67° C | 86% | 1016.9 hPa | 0 mm | - | - | - |
| 1777709446 | 12.78° C | 83% | 1017.4 hPa | 0 mm | - | - | - |
| 1777707618 | 13.33° C | 81% | 1016.9 hPa | 0 mm | - | - | - |
| 1777706424 | 13.89° C | 79% | 1016.9 hPa | 0 mm | - | - | - |
| 1777705827 | 13.89° C | 78% | 1016.9 hPa | 0 mm | - | - | - |
| 1777701626 | 16.11° C | 68% | 1016.4 hPa | 0 mm | - | - | - |
| 1777699228 | 16.67° C | 63% | 1016.3 hPa | 0 mm | - | - | - |
| 1777698631 | 16.67° C | 63% | 1016.1 hPa | 0 mm | - | - | - |
| 1777693220 | 18.33° C | 54% | 1015.2 hPa | 0 mm | - | - | - |
| 1777689616 | 21.11° C | 48% | 1014.4 hPa | 0 mm | - | - | - |
| 1777685418 | 23.89° C | 45% | 1014.2 hPa | 0 mm | - | - | - |
| 1777683030 | 24.44° C | 44% | 1014.3 hPa | 0 mm | - | - | - |
* Rain latest hour (hover to see other rain measurements)
** Current wind speed in m/s (hover to see current wind gust speed)